Location: Azat
(46.0765°N, 1.7600°E)
Time: 03:11:02
(UTC+00:00)

Cosmos 2360 Rocket - Pass Details

Date: 09 April 2020
Orbit: 834 x 845 km, 71.0° (Epoch: 29 May)

Event Time Altitude Azimuth Distance (km) Brightness Sun altitude
Rises 23:13:32 0° 337° (NNW) 3,394 6.3 -35.1°
Reaches altitude 10° 23:16:05 10° 343° (NNW) 2,457 5.4 -35.2°
Enters shadow 23:19:49 37° 12° (NNE) 1,293 3.5 -35.3°
